| time (UTC) | temp F | wind direction | speed MPH | gust MPH | rain 1hr in | rain 24hr in | rain mn in | humidity % | barometer mb |
| 20260505102010 | 46 | 258 | 0.0 | 1.0 | 0.00 | 0.00 | 0.00 | 86 | 1010.3 |
| 20260505101508 | 46 | 258 | 0.0 | 0.0 | 0.00 | 0.00 | 0.00 | 85 | 1009.9 |
| 20260505101004 | 47 | 258 | 0.0 | 0.0 | 0.00 | 0.00 | 0.00 | 84 | 1009.8 |
| 20260505100501 | 47 | 258 | 0.0 | 0.0 | 0.00 | 0.00 | 0.00 | 84 | 1009.6 |
| 20260505095957 | 47 | 258 | 0.0 | 0.0 | 0.00 | 0.00 | 0.00 | 84 | 1009.5 |
| 20260505095454 | 47 | 258 | 0.0 | 1.0 | 0.00 | 0.00 | 0.00 | 85 | 1009.9 |
| 20260505094950 | 47 | 258 | 0.0 | 0.0 | 0.00 | 0.00 | 0.00 | 84 | 1009.9 |
| 20260505094447 | 47 | 258 | 0.0 | 0.0 | 0.00 | 0.00 | 0.00 | 83 | 1009.9 |
| 20260505093943 | 48 | 258 | 0.0 | 1.0 | 0.00 | 0.00 | 0.00 | 83 | 1010.0 |
| 20260505093440 | 47 | 258 | 0.0 | 0.0 | 0.00 | 0.00 | 0.00 | 82 | 1009.5 |
| 20260505092937 | 48 | 258 | 0.0 | 0.0 | 0.00 | 0.00 | 0.00 | 83 | 1009.4 |
| 20260505092435 | 48 | 256 | 0.0 | 2.0 | 0.00 | 0.00 | 0.00 | 82 | 1009.1 |
| 20260505091932 | 48 | 235 | 2.0 | 2.0 | 0.00 | 0.00 | 0.00 | 82 | 1009.1 |
| 20260505091430 | 48 | 290 | 1.0 | 1.0 | 0.00 | 0.00 | 0.00 | 82 | 1008.9 |
| 20260505090928 | 48 | 291 | 0.0 | 0.0 | 0.00 | 0.00 | 0.00 | 82 | 1008.9 |
| 20260505090426 | 47 | 291 | 0.0 | 1.0 | 0.00 | 0.00 | 0.00 | 82 | 1008.8 |
| 20260505085923 | 48 | 291 | 0.0 | 1.0 | 0.00 | 0.00 | 0.00 | 83 | 1008.3 |
| 20260505085420 | 48 | 286 | 1.0 | 1.0 | 0.00 | 0.00 | 0.00 | 83 | 1008.7 |
| 20260505084918 | 48 | 286 | 0.0 | 1.0 | 0.00 | 0.00 | 0.00 | 83 | 1008.9 |
| 20260505084416 | 48 | 286 | 0.0 | 0.0 | 0.00 | 0.00 | 0.00 | 81 | 1008.9 |
| 20260505083914 | 48 | 258 | 1.0 | 2.0 | 0.00 | 0.00 | 0.00 | 80 | 1009.1 |
| 20260505083411 | 48 | 259 | 1.0 | 2.0 | 0.00 | 0.00 | 0.00 | 81 | 1008.1 |
| 20260505082907 | 48 | 262 | 0.0 | 1.0 | 0.00 | 0.00 | 0.00 | 82 | 1008.0 |
| 20260505082403 | 48 | 258 | 1.0 | 2.0 | 0.00 | 0.00 | 0.00 | 80 | 1008.4 |
| 20260505081900 | 48 | 263 | 1.0 | 1.0 | 0.00 | 0.00 | 0.00 | 80 | 1008.9 |
| 20260505081357 | 48 | 262 | 1.0 | 1.0 | 0.00 | 0.00 | 0.00 | 80 | 1009.0 |
| 20260505080854 | 48 | 256 | 1.0 | 2.0 | 0.00 | 0.00 | 0.00 | 80 | 1009.1 |
| 20260505080350 | 48 | 292 | 1.0 | 2.0 | 0.00 | 0.00 | 0.00 | 77 | 1008.4 |
| 20260505075845 | 48 | 319 | 1.0 | 1.0 | 0.00 | 0.00 | 0.00 | 80 | 1007.8 |
| 20260505075342 | 48 | 350 | 0.0 | 1.0 | 0.00 | 0.00 | 0.00 | 79 | 1007.5 |
| 20260505074840 | 48 | 350 | 0.0 | 1.0 | 0.00 | 0.00 | 0.00 | 79 | 1007.6 |
| 20260505074337 | 48 | 350 | 0.0 | 2.0 | 0.00 | 0.00 | 0.00 | 77 | 1007.7 |
| 20260505073834 | 48 | 349 | 1.0 | 2.0 | 0.00 | 0.00 | 0.00 | 76 | 1007.6 |
| 20260505073332 | 48 | 8 | 4.0 | 5.0 | 0.00 | 0.00 | 0.00 | 74 | 1007.9 |
| 20260505072829 | 48 | 15 | 1.0 | 6.0 | 0.00 | 0.00 | 0.00 | 75 | 1008.0 |
| 20260505072325 | 48 | 347 | 3.0 | 5.0 | 0.00 | 0.00 | 0.00 | 73 | 1008.2 |
| 20260505071821 | 49 | 347 | 2.0 | 10.0 | 0.00 | 0.00 | 0.00 | 70 | 1008.0 |
| 20260505071317 | 49 | 354 | 3.0 | 6.0 | 0.00 | 0.00 | 0.00 | 68 | 1008.2 |
| 20260505070816 | 50 | 9 | 4.0 | 7.0 | 0.00 | 0.00 | 0.00 | 66 | 1008.3 |
| 20260505070312 | 50 | 25 | 6.0 | 10.0 | 0.00 | 0.00 | 0.00 | 63 | 1008.3 |
| 20260505065807 | 50 | 14 | 5.0 | 13.0 | 0.00 | 0.00 | 0.00 | 64 | 1008.3 |
| 20260505065304 | 50 | 340 | 10.0 | 15.0 | 0.00 | 0.00 | 0.00 | 63 | 1008.4 |
| 20260505064801 | 50 | 13 | 7.0 | 16.0 | 0.00 | 0.00 | 0.00 | 62 | 1008.1 |
| 20260505064258 | 51 | 29 | 11.0 | 16.0 | 0.00 | 0.00 | 0.00 | 61 | 1008.4 |
| 20260505063756 | 51 | 359 | 7.0 | 14.0 | 0.00 | 0.00 | 0.00 | 62 | 1008.5 |
| 20260505063252 | 51 | 10 | 6.0 | 8.0 | 0.00 | 0.00 | 0.00 | 61 | 1008.5 |
| 20260505062748 | 51 | 3 | 6.0 | 14.0 | 0.00 | 0.00 | 0.00 | 58 | 1008.0 |
| 20260505062241 | 52 | 6 | 9.0 | 10.0 | 0.00 | 0.00 | 0.00 | 58 | 1007.9 |
| 20260505061737 | 52 | 11 | 8.0 | 10.0 | 0.00 | 0.00 | 0.00 | 57 | 1008.4 |
| 20260505061235 | 52 | 264 | 6.0 | 9.0 | 0.00 | 0.00 | 0.00 | 54 | 1008.4 |
| 20260505060732 | 53 | 15 | 3.0 | 14.0 | 0.00 | 0.00 | 0.00 | 54 | 1008.5 |
| 20260505060229 | 53 | 343 | 9.0 | 13.0 | 0.00 | 0.00 | 0.00 | 53 | 1008.6 |
| 20260505055724 | 53 | 10 | 7.0 | 13.0 | 0.00 | 0.00 | 0.00 | 53 | 1008.6 |
| 20260505055221 | 53 | 2 | 8.0 | 10.0 | 0.00 | 0.00 | 0.00 | 52 | 1008.5 |
| 20260505054719 | 54 | 339 | 3.0 | 8.0 | 0.00 | 0.00 | 0.00 | 51 | 1008.5 |
| 20260505054216 | 54 | 344 | 5.0 | 13.0 | 0.00 | 0.00 | 0.00 | 49 | 1008.3 |
| 20260505053714 | 54 | 26 | 5.0 | 16.0 | 0.00 | 0.00 | 0.00 | 48 | 1008.0 |
| 20260505053210 | 54 | 354 | 6.0 | 8.0 | 0.00 | 0.00 | 0.00 | 49 | 1008.1 |
| 20260505052708 | 54 | 358 | 7.0 | 9.0 | 0.00 | 0.00 | 0.00 | 49 | 1007.8 |
| 20260505052204 | 54 | 338 | 8.0 | 13.0 | 0.00 | 0.00 | 0.00 | 49 | 1007.6 |
| 20260505051702 | 54 | 355 | 6.0 | 13.0 | 0.00 | 0.00 | 0.00 | 50 | 1007.7 |
| 20260505051159 | 54 | 330 | 7.0 | 16.0 | 0.00 | 0.00 | 0.00 | 50 | 1007.4 |
| 20260505050651 | 55 | 11 | 15.0 | 17.0 | 0.00 | 0.00 | 0.00 | 49 | 1006.9 |
| 20260505050149 | 55 | 21 | 14.0 | 16.0 | 0.00 | 0.00 | 0.00 | 49 | 1007.1 |
| 20260505041618 | 56 | 15 | 8.0 | 18.0 | 0.00 | 0.00 | 0.00 | 45 | 1007.1 |
| 20260505041115 | 56 | 15 | 10.0 | 14.0 | 0.00 | 0.00 | 0.00 | 45 | 1007.2 |
| 20260505040613 | 56 | 13 | 5.0 | 13.0 | 0.00 | 0.00 | 0.00 | 45 | 1007.1 |
| 20260505040110 | 56 | 8 | 6.0 | 8.0 | 0.00 | 0.00 | 0.00 | 44 | 1007.2 |
| 20260505035606 | 56 | 343 | 10.0 | 17.0 | 0.00 | 0.00 | 0.00 | 43 | 1007.2 |
| 20260505035103 | 56 | 15 | 9.0 | 11.0 | 0.00 | 0.00 | 0.00 | 43 | 1007.2 |
| 20260505034600 | 56 | 1 | 8.0 | 11.0 | 0.00 | 0.00 | 0.00 | 44 | 1007.1 |
| 20260505034056 | 56 | 356 | 8.0 | 17.0 | 0.00 | 0.00 | 0.00 | 43 | 1007.0 |
| 20260505033553 | 56 | 350 | 11.0 | 20.0 | 0.00 | 0.00 | 0.00 | 43 | 1006.7 |
| 20260505033051 | 56 | 355 | 5.0 | 13.0 | 0.00 | 0.00 | 0.00 | 44 | 1007.5 |
| 20260505032549 | 57 | 4 | 7.0 | 20.0 | 0.00 | 0.00 | 0.00 | 43 | 1007.5 |
| 20260505032045 | 57 | 7 | 6.0 | 20.0 | 0.00 | 0.00 | 0.00 | 43 | 1007.1 |
| 20260505031542 | 57 | 346 | 10.0 | 18.0 | 0.00 | 0.00 | 0.00 | 43 | 1007.1 |
| 20260505031038 | 58 | 6 | 18.0 | 26.0 | 0.00 | 0.00 | 0.00 | 43 | 1006.7 |
| 20260505030536 | 58 | 4 | 14.0 | 24.0 | 0.00 | 0.00 | 0.00 | 43 | 1006.2 |
| 20260505030032 | 58 | 6 | 14.0 | 22.0 | 0.00 | 0.00 | 0.00 | 43 | 1006.7 |
| 20260505025527 | 58 | 351 | 6.0 | 13.0 | 0.00 | 0.00 | 0.00 | 44 | 1006.7 |
| 20260505025027 | 58 | 358 | 9.0 | 15.0 | 0.00 | 0.00 | 0.00 | 42 | 1006.7 |
| 20260505024523 | 58 | 339 | 12.0 | 18.0 | 0.00 | 0.00 | 0.00 | 42 | 1006.8 |
| 20260505024020 | 59 | 317 | 11.0 | 14.0 | 0.00 | 0.00 | 0.00 | 42 | 1006.7 |
| 20260505023517 | 59 | 344 | 7.0 | 10.0 | 0.00 | 0.00 | 0.00 | 42 | 1006.6 |
| 20260505023015 | 59 | 353 | 4.0 | 8.0 | 0.00 | 0.00 | 0.00 | 42 | 1006.1 |
| 20260505022513 | 60 | 344 | 5.0 | 15.0 | 0.00 | 0.00 | 0.00 | 41 | 1005.9 |
| 20260505022010 | 60 | 341 | 5.0 | 18.0 | 0.00 | 0.00 | 0.00 | 41 | 1005.7 |
| 20260505021506 | 60 | 302 | 11.0 | 21.0 | 0.00 | 0.00 | 0.00 | 41 | 1005.8 |
| 20260505021002 | 60 | 10 | 9.0 | 18.0 | 0.00 | 0.00 | 0.00 | 41 | 1005.6 |
| 20260505020457 | 61 | 351 | 5.0 | 16.0 | 0.00 | 0.00 | 0.00 | 41 | 1005.7 |
| 20260505015954 | 61 | 305 | 7.0 | 21.0 | 0.00 | 0.00 | 0.00 | 41 | 1005.3 |
| 20260505015451 | 63 | 286 | 7.0 | 17.0 | 0.00 | 0.00 | 0.00 | 39 | 1005.2 |
| 20260505014948 | 63 | 15 | 8.0 | 22.0 | 0.00 | 0.00 | 0.00 | 37 | 1005.1 |
| 20260505014445 | 63 | 7 | 11.0 | 22.0 | 0.00 | 0.00 | 0.00 | 36 | 1004.8 |
| 20260505013942 | 64 | 359 | 11.0 | 24.0 | 0.00 | 0.00 | 0.00 | 36 | 1004.8 |
| 20260505013439 | 64 | 23 | 18.0 | 23.0 | 0.00 | 0.00 | 0.00 | 35 | 1004.4 |
| 20260505012937 | 65 | 1 | 13.0 | 24.0 | 0.00 | 0.00 | 0.00 | 35 | 1004.5 |
| 20260505012436 | 65 | 352 | 14.0 | 16.0 | 0.00 | 0.00 | 0.00 | 34 | 1004.2 |
| 20260505011932 | 66 | 336 | 10.0 | 14.0 | 0.00 | 0.00 | 0.00 | 35 | 1003.8 |
| 20260505011428 | 66 | 7 | 13.0 | 22.0 | 0.00 | 0.00 | 0.00 | 34 | 1003.9 |
| 20260505010925 | 66 | 6 | 8.0 | 22.0 | 0.00 | 0.00 | 0.00 | 34 | 1003.5 |
| 20260505010420 | 67 | 5 | 7.0 | 17.0 | 0.00 | 0.00 | 0.00 | 34 | 1003.6 |
| 20260505005916 | 67 | 9 | 13.0 | 18.0 | 0.00 | 0.00 | 0.00 | 33 | 1003.4 |
| 20260505005413 | 68 | 11 | 5.0 | 16.0 | 0.00 | 0.00 | 0.00 | 34 | 1003.4 |
| 20260505004910 | 68 | 335 | 12.0 | 24.0 | 0.00 | 0.00 | 0.00 | 33 | 1003.2 |
| 20260505004407 | 68 | 309 | 10.0 | 23.0 | 0.00 | 0.00 | 0.00 | 33 | 1003.2 |
| 20260505003904 | 69 | 334 | 11.0 | 25.0 | 0.00 | 0.00 | 0.00 | 33 | 1002.8 |
| 20260505003401 | 70 | 9 | 7.0 | 18.0 | 0.00 | 0.00 | 0.00 | 33 | 1002.7 |
| 20260505002857 | 71 | 6 | 17.0 | 25.0 | 0.00 | 0.00 | 0.00 | 32 | 1002.3 |
| 20260505002354 | 71 | 5 | 5.0 | 17.0 | 0.00 | 0.00 | 0.00 | 33 | 1002.3 |
| 20260505001852 | 72 | 12 | 13.0 | 21.0 | 0.00 | 0.00 | 0.00 | 32 | 1002.3 |
| 20260505001349 | 72 | 353 | 10.0 | 17.0 | 0.00 | 0.00 | 0.00 | 32 | 1002.0 |
| 20260505000846 | 73 | 337 | 12.0 | 17.0 | 0.00 | 0.00 | 0.00 | 30 | 1002.1 |
| 20260505000344 | 73 | 354 | 8.0 | 17.0 | 0.00 | 0.00 | 0.00 | 31 | 1002.1 |
| 20260504235840 | 73 | 3 | 10.0 | 14.0 | 0.00 | 0.00 | 0.00 | 32 | 1002.0 |
| 20260504235338 | 74 | 333 | 9.0 | 21.0 | 0.00 | 0.00 | 0.00 | 31 | 1001.9 |
| 20260504234834 | 74 | 344 | 12.0 | 22.0 | 0.00 | 0.00 | 0.00 | 31 | 1002.0 |
| 20260504234332 | 75 | 341 | 14.0 | 23.0 | 0.00 | 0.00 | 0.00 | 30 | 1001.8 |
| 20260504233828 | 75 | 46 | 8.0 | 16.0 | 0.00 | 0.00 | 0.00 | 30 | 1001.8 |
| 20260504233324 | 75 | 1 | 6.0 | 22.0 | 0.00 | 0.00 | 0.00 | 30 | 1001.7 |
| 20260504232821 | 75 | 341 | 12.0 | 18.0 | 0.00 | 0.00 | 0.00 | 30 | 1001.5 |
| 20260504232318 | 75 | 337 | 15.0 | 24.0 | 0.00 | 0.00 | 0.00 | 31 | 1001.7 |
| 20260504231815 | 76 | 316 | 4.0 | 18.0 | 0.00 | 0.00 | 0.00 | 31 | 1001.5 |
| 20260504231311 | 76 | 299 | 9.0 | 23.0 | 0.00 | 0.00 | 0.00 | 31 | 1001.4 |
| 20260504230808 | 76 | 44 | 12.0 | 21.0 | 0.00 | 0.00 | 0.00 | 31 | 1001.5 |
| 20260504230306 | 76 | 20 | 14.0 | 20.0 | 0.00 | 0.00 | 0.00 | 31 | 1001.4 |
| 20260504225804 | 77 | 349 | 11.0 | 18.0 | 0.00 | 0.00 | 0.00 | 31 | 1001.2 |
| 20260504225300 | 77 | 295 | 16.0 | 21.0 | 0.00 | 0.00 | 0.00 | 31 | 1001.0 |
| 20260504224757 | 78 | 330 | 9.0 | 20.0 | 0.00 | 0.00 | 0.00 | 32 | 1001.1 |
| 20260504224255 | 78 | 328 | 15.0 | 24.0 | 0.00 | 0.00 | 0.00 | 31 | 1000.9 |
| 20260504223751 | 78 | 50 | 8.0 | 16.0 | 0.00 | 0.00 | 0.00 | 33 | 1001.0 |
| 20260504223247 | 78 | 306 | 10.0 | 16.0 | 0.00 | 0.00 | 0.00 | 33 | 1000.5 |
| 20260504222744 | 79 | 333 | 7.0 | 16.0 | 0.00 | 0.00 | 0.00 | 34 | 1000.7 |
| 20260504222241 | 79 | 5 | 6.0 | 17.0 | 0.00 | 0.00 | 0.00 | 34 | 1000.5 |
| 20260504221738 | 80 | 314 | 8.0 | 17.0 | 0.00 | 0.00 | 0.00 | 34 | 1000.3 |
| 20260504221235 | 81 | 348 | 8.0 | 13.0 | 0.00 | 0.00 | 0.00 | 35 | 1000.1 |
| 20260504220731 | 81 | 358 | 8.0 | 13.0 | 0.00 | 0.00 | 0.00 | 32 | 1000.2 |
| 20260504220229 | 80 | 309 | 2.0 | 11.0 | 0.00 | 0.00 | 0.00 | 34 | 1000.0 |
| 20260504215726 | 79 | 337 | 5.0 | 13.0 | 0.00 | 0.00 | 0.00 | 34 | 1000.0 |
| 20260504215217 | 79 | 324 | 2.0 | 13.0 | 0.00 | 0.00 | 0.00 | 36 | 1000.2 |
| 20260504214712 | 80 | 340 | 8.0 | 10.0 | 0.00 | 0.00 | 0.00 | 33 | 1000.2 |
| 20260504214209 | 80 | 338 | 6.0 | 14.0 | 0.00 | 0.00 | 0.00 | 33 | 1000.0 |
| 20260504213706 | 81 | 315 | 7.0 | 16.0 | 0.00 | 0.00 | 0.00 | 34 | 1000.0 |
| 20260504213202 | 82 | 284 | 13.0 | 18.0 | 0.00 | 0.00 | 0.00 | 30 | 999.9 |
| 20260504212659 | 83 | 319 | 9.0 | 13.0 | 0.00 | 0.00 | 0.00 | 28 | 999.6 |
| 20260504212155 | 83 | 284 | 10.0 | 11.0 | 0.00 | 0.00 | 0.00 | 26 | 999.7 |
| 20260504211653 | 83 | 304 | 4.0 | 9.0 | 0.00 | 0.00 | 0.00 | 25 | 999.8 |
| 20260504211149 | 82 | 280 | 4.0 | 9.0 | 0.00 | 0.00 | 0.00 | 27 | 999.8 |
| 20260504210647 | 83 | 65 | 8.0 | 11.0 | 0.00 | 0.00 | 0.00 | 26 | 999.8 |
| 20260504210143 | 82 | 285 | 5.0 | 13.0 | 0.00 | 0.00 | 0.00 | 26 | 999.9 |
| 20260504205641 | 83 | 289 | 5.0 | 9.0 | 0.00 | 0.00 | 0.00 | 27 | 999.9 |
| 20260504205138 | 82 | 322 | 7.0 | 11.0 | 0.00 | 0.00 | 0.00 | 26 | 999.8 |
| 20260504204637 | 81 | 304 | 5.0 | 9.0 | 0.00 | 0.00 | 0.00 | 28 | 1000.0 |
| 20260504204135 | 82 | 298 | 9.0 | 14.0 | 0.00 | 0.00 | 0.00 | 27 | 999.9 |
| 20260504203633 | 83 | 295 | 6.0 | 14.0 | 0.00 | 0.00 | 0.00 | 28 | 999.9 |
| 20260504203131 | 82 | 321 | 5.0 | 10.0 | 0.00 | 0.00 | 0.00 | 28 | 1000.0 |
| 20260504202626 | 82 | 293 | 9.0 | 13.0 | 0.00 | 0.00 | 0.00 | 27 | 999.9 |
| 20260504202123 | 82 | 285 | 5.0 | 10.0 | 0.00 | 0.00 | 0.00 | 28 | 1000.0 |
| 20260504201620 | 82 | 301 | 7.0 | 11.0 | 0.00 | 0.00 | 0.00 | 30 | 1000.0 |
| 20260504201118 | 82 | 250 | 5.0 | 17.0 | 0.00 | 0.00 | 0.00 | 29 | 1000.1 |
| 20260504200615 | 82 | 312 | 9.0 | 16.0 | 0.00 | 0.00 | 0.00 | 30 | 999.9 |
| 20260504200111 | 83 | 284 | 7.0 | 15.0 | 0.00 | 0.00 | 0.00 | 30 | 1000.1 |
| 20260504195607 | 82 | 285 | 5.0 | 8.0 | 0.00 | 0.00 | 0.00 | 32 | 1000.0 |
| 20260504195103 | 81 | 293 | 8.0 | 15.0 | 0.00 | 0.00 | 0.00 | 31 | 1000.3 |
| 20260504194600 | 80 | 295 | 6.0 | 14.0 | 0.00 | 0.00 | 0.00 | 32 | 1000.1 |
| 20260504194055 | 81 | 306 | 8.0 | 17.0 | 0.00 | 0.00 | 0.00 | 32 | 1000.1 |
| 20260504193552 | 82 | 262 | 3.0 | 11.0 | 0.00 | 0.00 | 0.00 | 33 | 1000.3 |
| 20260504193051 | 82 | 232 | 11.0 | 15.0 | 0.00 | 0.00 | 0.00 | 30 | 1000.2 |
| 20260504192549 | 83 | 356 | 4.0 | 18.0 | 0.00 | 0.00 | 0.00 | 34 | 1000.3 |
| 20260504192047 | 81 | 251 | 3.0 | 8.0 | 0.00 | 0.00 | 0.00 | 33 | 1000.2 |
| 20260504191544 | 80 | 326 | 4.0 | 10.0 | 0.00 | 0.00 | 0.00 | 33 | 1000.1 |
| 20260504191040 | 81 | 278 | 6.0 | 13.0 | 0.00 | 0.00 | 0.00 | 33 | 1000.1 |
| 20260504190537 | 82 | 244 | 9.0 | 21.0 | 0.00 | 0.00 | 0.00 | 32 | 1000.2 |
| 20260504190032 | 82 | 346 | 6.0 | 15.0 | 0.00 | 0.00 | 0.00 | 32 | 1000.2 |
| 20260504185530 | 80 | 266 | 5.0 | 7.0 | 0.00 | 0.00 | 0.00 | 34 | 1000.1 |
| 20260504185026 | 82 | 278 | 7.0 | 16.0 | 0.00 | 0.00 | 0.00 | 33 | 1000.4 |
| 20260504184521 | 81 | 258 | 5.0 | 11.0 | 0.00 | 0.00 | 0.00 | 32 | 1000.4 |
| 20260504184017 | 82 | 286 | 6.0 | 11.0 | 0.00 | 0.00 | 0.00 | 32 | 1000.1 |
| 20260504183515 | 82 | 205 | 4.0 | 8.0 | 0.00 | 0.00 | 0.00 | 37 | 1000.3 |
| 20260504183013 | 81 | 279 | 3.0 | 11.0 | 0.00 | 0.00 | 0.00 | 34 | 1000.3 |
| 20260504182509 | 81 | 40 | 4.0 | 14.0 | 0.00 | 0.00 | 0.00 | 33 | 1000.2 |
| 20260504182006 | 81 | 300 | 9.0 | 16.0 | 0.00 | 0.00 | 0.00 | 33 | 1000.3 |
| 20260504181503 | 81 | 232 | 5.0 | 11.0 | 0.00 | 0.00 | 0.00 | 32 | 1000.2 |
| 20260504181002 | 80 | 275 | 4.0 | 10.0 | 0.00 | 0.00 | 0.00 | 33 | 1000.2 |
| 20260504180500 | 82 | 306 | 5.0 | 21.0 | 0.00 | 0.00 | 0.00 | 33 | 1000.3 |
| 20260504175958 | 82 | 287 | 8.0 | 13.0 | 0.00 | 0.00 | 0.00 | 33 | 1000.3 |
| 20260504175455 | 81 | 254 | 7.0 | 9.0 | 0.00 | 0.00 | 0.00 | 35 | 1000.2 |
| 20260504174953 | 81 | 309 | 5.0 | 16.0 | 0.00 | 0.00 | 0.00 | 35 | 1000.2 |
| 20260504174450 | 80 | 301 | 6.0 | 10.0 | 0.00 | 0.00 | 0.00 | 38 | 1000.2 |
| 20260504173947 | 80 | 222 | 5.0 | 7.0 | 0.00 | 0.00 | 0.00 | 37 | 1000.4 |
| 20260504173443 | 81 | 259 | 9.0 | 11.0 | 0.00 | 0.00 | 0.00 | 36 | 1000.5 |
| 20260504172941 | 81 | 266 | 4.0 | 14.0 | 0.00 | 0.00 | 0.00 | 39 | 1000.5 |
| 20260504172437 | 80 | 283 | 3.0 | 9.0 | 0.00 | 0.00 | 0.00 | 39 | 1000.3 |
| 20260504171934 | 79 | 261 | 5.0 | 9.0 | 0.00 | 0.00 | 0.00 | 39 | 1000.5 |
| 20260504171431 | 79 | 232 | 7.0 | 9.0 | 0.00 | 0.00 | 0.00 | 37 | 1000.5 |
| 20260504170928 | 79 | 242 | 6.0 | 8.0 | 0.00 | 0.00 | 0.00 | 43 | 1000.5 |
| 20260504170424 | 79 | 221 | 3.0 | 8.0 | 0.00 | 0.00 | 0.00 | 44 | 1000.7 |
| 20260504160343 | 75 | 206 | 5.0 | 7.0 | 0.00 | 0.00 | 0.00 | 49 | 1000.8 |
| 20260504150808 | 73 | 218 | 3.0 | 5.0 | 0.00 | 0.00 | 0.00 | 53 | 1000.9 |
| 20260504150304 | 72 | 259 | 5.0 | 7.0 | 0.00 | 0.00 | 0.00 | 52 | 1001.1 |
| 20260504141229 | 66 | 256 | 3.0 | 7.0 | 0.00 | 0.00 | 0.00 | 61 | 1001.4 |
| 20260504140725 | 66 | 209 | 3.0 | 7.0 | 0.00 | 0.00 | 0.00 | 61 | 1001.4 |
| 20260504140221 | 65 | 218 | 3.0 | 6.0 | 0.00 | 0.00 | 0.00 | 62 | 1001.6 |
| 20260504130650 | 57 | 222 | 6.0 | 7.0 | 0.00 | 0.00 | 0.00 | 68 | 1001.5 |
| 20260504130146 | 57 | 230 | 3.0 | 6.0 | 0.00 | 0.00 | 0.00 | 69 | 1001.6 |
| 20260504120110 | 51 | 218 | 2.0 | 3.0 | 0.00 | 0.00 | 0.00 | 73 | 1002.2 |
| 20260504110538 | 50 | 219 | 1.0 | 1.0 | 0.00 | 0.00 | 0.00 | 75 | 1002.2 |